{"data":{"norad_id":53692,"intl_designator":"2022-105AW","name":"STARLINK-4572","alt_names":[],"object_type":"PAYLOAD","status":"ACTIVE","operator":null,"country":"US","launch_date":"2022-08-31","launch_site_code":"AFWTR","launch_vehicle":null,"mission":null,"orbit_class":"UNKNOWN","rcs_meters":null,"size_class":null,"mass_kg":null,"dimensions":null,"purposes":["comms"],"wikipedia_slug":null,"has_3d_model":false,"image_url":null,"decayed_at":null,"tle_current":{"epoch":"2026-05-25T03:22:46.549920Z","epoch_age_seconds":69758,"freshness":"FRESH","line1":"1 53692U 22105AW  26145.14081655  .00027283  00000+0  10863-2 0  9994","line2":"2 53692  97.6101  33.1680 0002640  78.8824 281.2711 15.25213888205193","mean_motion":15.25213888,"eccentricity":0.000264,"inclination_deg":97.6101,"raan_deg":33.168,"arg_perigee_deg":78.8824,"mean_anomaly_deg":281.2711,"bstar":0.0010863,"rev_number":20519,"period_min":94.412987668783,"perigee_km":488.33001831566,"apogee_km":491.95647028465,"semimajor_km":6868.2802443002,"source":"CELESTRAK","updated_at":"2026-05-25T13:38:17.531029Z"}}}